This is the latest recevied weather packets stored in our database for station/object K9RJT. If no packets are shown the sender has not sent any weather packets the latest 10 day(s).
| Time | Temp. | Humidity | Pressure | Rain* | Wind** | Luminosity | Snow |
|---|---|---|---|---|---|---|---|
| 1777932259 | 26.67° C | 26% | 1005.3 hPa | 0 mm | - | 550 W/m² | - |
| 1777931956 | 26.67° C | 27% | 1004.9 hPa | 0 mm | - | 559 W/m² | - |
| 1777931652 | 26.67° C | 26% | 1005.4 hPa | 0 mm | - | 569 W/m² | - |
| 1777931349 | 26.11° C | 27% | 1005.6 hPa | 0 mm | - | 577 W/m² | - |
| 1777931046 | 26.67° C | 27% | 1005.7 hPa | 0 mm | - | 581 W/m² | - |
| 1777930742 | 26.67° C | 28% | 1005.3 hPa | 0 mm | - | 588 W/m² | - |
| 1777930438 | 26.11° C | 28% | 1005.3 hPa | 0 mm | - | 606 W/m² | - |
| 1777930136 | 26.67° C | 28% | 1005.5 hPa | 0 mm | - | 223 W/m² | - |
| 1777929831 | 26.67° C | 28% | 1005.5 hPa | 0 mm | - | 658 W/m² | - |
| 1777929530 | 26.11° C | 30% | 1005.6 hPa | 0 mm | - | 641 W/m² | - |
| 1777929225 | 26.67° C | 29% | 1005.5 hPa | 0 mm | - | 638 W/m² | - |
| 1777928923 | 26.11° C | 29% | 1005.6 hPa | 0 mm | - | 648 W/m² | - |
| 1777928620 | 25.56° C | 29% | 1005.6 hPa | 0 mm | - | 685 W/m² | - |
| 1777928317 | 26.11° C | 29% | 1005.6 hPa | 0 mm | - | 676 W/m² | - |
| 1777928015 | 26.11° C | 29% | 1005.7 hPa | 0 mm | - | 664 W/m² | - |
| 1777927713 | 26.11° C | 29% | 1005.7 hPa | 0 mm | - | 669 W/m² | - |
| 1777927411 | 25.56° C | 30% | 1005.6 hPa | 0 mm | - | 668 W/m² | - |
| 1777927110 | 25.56° C | 30% | 1005.6 hPa | 0 mm | - | 679 W/m² | - |
| 1777926807 | 26.11° C | 30% | 1005.6 hPa | 0 mm | - | 685 W/m² | - |
| 1777926502 | 26.67° C | 30% | 1005.7 hPa | 0 mm | - | 700 W/m² | - |
| 1777926200 | 26.11° C | 31% | 1006 hPa | 0 mm | - | 711 W/m² | - |
| 1777925896 | 26.11° C | 29% | 1005.7 hPa | 0 mm | - | 711 W/m² | - |
| 1777925594 | 25° C | 30% | 1005.7 hPa | 0 mm | - | 746 W/m² | - |
| 1777925291 | 26.67° C | 29% | 1005.6 hPa | 0 mm | - | 737 W/m² | - |
| 1777924987 | 26.11° C | 30% | 1006 hPa | 0 mm | - | 702 W/m² | - |
* Rain latest hour (hover to see other rain measurements)
** Current wind speed in m/s (hover to see current wind gust speed)